Wind_Speed
12 13 14 14 14 14 14 14 14 14 14 15 16 17 17 17 18 19 19 20 20 21 21 21 22 23 23 23 23 23 22 21 20 19 18 17 16 14 12 10 9 7 6 7
10 11 12 13 13 14 13 13 14 14 14 15 16 16 17 18 18 19 20 20 20 20 21 21 21 22 23 23 23 23 23 22 21 21 20 19 18 16 14 13 11 10 9 9
9 10 11 11 12 13 13 13 13 13 14 14 15 16 16 18 18 19 19 20 20 20 20 21 21 22 23 23 23 23 23 22 22 21 21 20 19 18 16 15 13 12 11 11
8 9 9 11 11 12 12 12 12 13 13 14 14 15 16 17 18 19 19 20 20 20 20 20 21 22 22 23 23 23 22 22 22 22 22 21 21 20 18 17 17 16 15 14
7 8 8 9 10 10 11 12 12 12 13 13 14 14 15 16 17 18 18 19 19 19 19 20 20 21 22 23 23 23 23 22 22 22 22 22 22 21 20 19 19 19 18 16
6 7 7 8 9 9 10 11 12 12 12 13 13 14 15 15 16 17 18 18 18 18 18 19 20 20 21 22 23 24 24 23 23 23 23 23 23 23 22 21 21 20 19 18
7 7 7 8 8 8 9 10 11 11 12 12 13 14 14 15 16 17 17 17 17 17 18 18 18 19 20 21 22 23 24 24 23 23 23 23 24 24 23 23 22 22 21 20
10 9 8 8 8 8 9 9 10 10 11 12 12 13 14 15 15 16 16 16 16 16 17 17 17 18 19 20 21 22 23 24 24 24 24 24 24 25 25 24 24 23 22 21
12 11 11 11 10 10 10 9 10 10 10 10 11 12 13 13 14 15 15 15 15 15 16 16 16 17 18 19 20 21 22 23 24 24 24 24 25 25 25 25 25 24 24 23
15 15 14 13 13 13 12 11 10 10 10 10 10 11 12 12 12 13 14 15 15 15 15 15 15 16 17 18 18 19 20 22 23 23 24 24 25 25 25 25 26 25 24 24
18 18 17 16 16 16 15 14 13 12 11 11 11 11 11 11 12 12 13 14 14 14 14 14 15 15 16 16 17 18 19 20 21 22 24 24 24 25 25 25 26 26 25 25
21 21 20 19 18 18 18 17 16 15 14 13 13 12 11 11 11 12 12 13 13 13 13 14 14 14 15 15 15 16 17 18 20 21 22 23 24 24 25 25 25 26 26 25
24 24 24 23 22 21 20 20 20 19 18 16 15 14 14 13 12 12 12 12 12 12 13 13 13 13 14 14 14 15 15 16 17 19 20 21 22 23 23 24 24 25 25 25
28 27 26 26 25 24 24 23 23 22 21 20 19 18 17 16 14 14 13 12 12 12 12 12 12 12 13 13 13 14 14 15 15 16 18 19 20 21 22 22 22 23 23 24
32 30 29 28 28 28 28 27 26 26 25 23 22 21 20 19 18 16 15 15 14 13 13 12 12 12 12 12 12 13 13 13 14 15 15 16 17 19 19 20 20 21 21 22
35 35 33 32 31 31 31 30 29 29 28 26 25 25 23 22 21 20 19 18 17 15 14 13 12 12 12 12 12 12 12 12 12 13 13 14 15 16 16 17 18 18 18 19
40 39 38 37 36 35 34 33 33 32 31 30 29 28 26 25 24 23 22 21 20 19 18 16 15 14 13 12 12 11 11 11 11 11 11 12 12 13 13 14 15 15 16 16
45 44 43 42 41 40 39 38 37 36 35 34 33 31 29 28 27 26 26 24 23 22 21 20 18 17 16 15 14 13 12 11 11 11 10 10 10 10 11 11 11 12 12 13
50 50 49 48 47 45 44 42 41 40 39 38 37 35 33 32 31 30 29 27 25 25 24 23 21 20 19 18 17 15 14 13 12 11 10 10 10 9 9 9 9 9 9 9
55 55 55 54 53 52 50 48 46 45 43 42 41 39 37 36 35 34 32 30 28 28 27 25 24 23 22 21 20 19 17 16 15 14 12 12 11 10 9 9 8 8 7 7
58 59 59 59 58 57 56 54 52 50 48 47 46 44 42 41 40 38 36 33 32 32 31 29 27 26 25 24 23 21 20 19 18 17 16 14 13 12 11 10 10 9 8 7
59 60 61 62 62 62 61 60 58 57 55 53 51 49 47 45 44 42 40 37 36 36 34 32 31 30 29 27 26 25 24 22 21 20 19 18 17 16 14 13 12 12 11 10
60 61 61 63 64 65 65 64 63 62 60 58 56 54 53 51 49 48 45 42 41 40 38 36 35 34 33 31 30 28 27 26 25 24 22 21 20 19 18 17 16 15 15 14
62 62 62 62 63 65 66 67 67 66 65 64 61 59 58 56 55 53 51 49 47 45 42 40 39 39 37 36 34 32 31 30 29 28 26 25 24 23 22 21 20 19 19 18
63 63 63 63 63 63 65 67 69 70 69 68 66 64 62 61 60 58 57 55 52 50 47 45 44 43 42 40 39 37 36 34 33 32 31 29 28 27 26 25 24 24 23 23
65 66 65 65 64 63 63 64 66 69 71 71 70 69 68 65 64 63 62 60 58 55 53 51 50 49 48 46 44 43 41 39 38 37 35 34 33 32 31 29 28 28 27 27
67 67 67 67 67 66 64 63 63 65 68 71 73 73 72 71 69 67 65 64 63 61 59 58 56 54 53 52 50 48 47 45 43 42 41 39 38 37 36 34 33 33 32 32
Wind_Direction
46 42 40 40 39 37 35 35 35 34 32 30 28 25 24 24 23 23 23 23 23 23 24 26 27 28 28 28 29 29 30 31 31 31 29 29 27 24 21 17 10 356 331 303
45 43 40 39 38 36 35 33 32 31 31 28 26 25 25 25 25 24 23 23 23 23 24 26 27 27 28 28 29 29 29 29 29 29 28 27 25 23 19 17 12 0 345 326
39 40 37 36 32 31 30 30 29 28 27 25 25 24 24 23 22 21 21 21 21 22 24 25 26 26 26 26 25 26 26 27 26 26 26 24 23 20 18 15 9 2 351 338
25 29 32 29 27 25 24 24 23 22 20 20 20 19 18 17 18 19 20 20 20 21 22 23 24 25 25 24 23 24 24 25 24 23 23 22 21 19 17 14 9 3 355 346
6 14 22 21 18 17 17 18 16 15 16 15 14 14 12 12 13 14 15 17 18 19 21 22 23 24 24 24 24 23 23 23 22 21 20 19 18 17 15 13 10 6 1 355
340 351 4 10 9 10 12 14 13 12 11 11 11 11 9 9 10 10 11 13 15 17 19 20 21 22 23 23 23 23 23 22 21 20 18 17 16 16 14 13 10 8 5 1
314 322 337 348 353 358 2 5 5 6 6 6 6 6 6 6 6 7 8 10 12 14 16 18 19 20 21 21 22 22 22 22 21 19 18 18 17 17 16 14 12 11 8 5
299 303 311 317 326 335 345 351 354 355 357 360 1 3 4 4 5 5 7 8 9 10 12 14 16 17 18 19 21 22 22 22 21 20 19 18 18 18 17 16 15 14 12 10
292 295 296 298 303 310 317 327 335 341 345 347 351 355 357 359 1 3 4 5 7 8 9 11 13 14 15 17 18 20 21 21 21 20 20 19 19 19 19 19 18 18 18 18
282 285 287 288 290 293 297 304 311 319 328 335 339 344 348 350 352 354 357 359 1 3 5 7 9 11 13 14 16 17 18 19 21 21 21 21 21 21 21 21 22 23 25 25
275 276 279 282 285 286 287 289 293 298 305 312 321 328 333 338 341 343 346 350 353 356 358 0 3 5 7 10 13 15 16 17 18 20 21 22 22 23 23 25 26 28 30 32
269 271 273 275 277 278 280 282 283 285 289 294 300 307 314 322 328 331 335 339 343 347 349 353 356 358 1 4 7 10 13 15 17 19 20 22 23 24 25 27 29 31 34 37
266 266 268 269 269 271 273 275 277 278 280 283 286 291 296 302 309 316 323 328 332 336 339 342 347 351 354 357 0 4 6 9 12 16 18 21 23 25 27 29 32 34 36 39
266 266 266 267 268 269 270 271 272 273 275 276 278 281 284 288 293 298 304 311 318 324 328 332 336 340 345 349 353 357 1 4 7 11 14 18 21 24 27 30 33 36 38 41
268 268 268 267 267 267 268 269 269 270 271 272 273 275 276 279 282 285 289 293 299 306 313 318 323 328 333 339 344 348 352 357 2 6 9 13 17 21 25 29 33 36 39 42
268 269 269 268 267 266 267 268 268 269 270 270 270 270 271 272 274 276 279 281 285 290 296 301 307 312 317 324 330 336 341 346 352 358 3 7 12 17 21 26 31 34 38 42
266 267 268 269 268 267 266 266 267 267 268 268 267 267 267 268 268 269 271 273 276 279 282 286 290 295 300 305 311 318 325 331 337 343 351 358 4 9 14 20 25 31 35 39
264 265 265 266 267 267 267 266 266 266 266 266 265 265 265 264 263 264 266 267 269 271 273 276 279 282 285 289 294 300 307 314 320 325 332 339 349 357 2 8 14 21 27 33
262 263 263 263 264 264 264 264 264 264 264 264 264 264 263 262 261 261 261 262 264 265 267 269 271 273 275 277 280 284 289 294 300 307 313 319 325 334 344 352 359 4 11 19
260 261 262 262 262 262 262 262 262 262 262 262 262 262 261 260 259 258 258 258 259 261 262 264 265 267 268 270 272 274 277 280 284 288 293 298 304 309 316 323 332 341 347 353
259 258 258 259 260 260 260 259 259 259 259 259 259 259 259 258 258 258 257 256 256 257 258 259 260 262 263 264 265 267 269 271 273 276 279 283 287 291 295 299 304 309 314 318
261 259 257 256 256 257 257 257 257 256 256 256 256 256 256 256 256 256 255 254 253 254 255 256 256 257 258 259 261 262 263 265 266 268 271 273 276 279 282 284 287 289 292 295
267 264 260 257 255 254 254 255 255 254 254 254 253 253 254 254 254 254 253 252 252 252 252 252 253 254 255 256 257 259 260 261 262 263 266 268 270 272 274 276 278 280 281 282
270 269 266 263 259 255 253 252 252 252 252 251 251 251 251 251 252 252 252 251 251 251 251 250 251 252 253 253 255 256 257 258 259 260 262 264 266 267 269 271 273 274 275 276
271 270 269 267 265 261 257 253 250 249 249 249 249 249 249 249 249 249 250 250 250 249 249 248 248 249 250 251 252 253 255 256 257 258 259 261 263 264 266 267 269 270 272 273
272 271 270 269 267 265 261 257 253 250 248 248 247 247 247 247 247 248 248 249 249 248 247 247 247 247 248 250 250 252 253 254 255 256 257 259 260 262 263 265 266 267 269 271
273 272 271 270 268 267 264 260 256 252 249 248 246 245 245 244 244 245 246 247 247 247 247 246 246 246 247 248 249 250 251 252 253 254 256 257 258 260 261 263 264 265 266 268
Height
5883 5881 5879 5877 5874 5872 5869 5867 5865 5862 5860 5857 5854 5851 5848 5845 5841 5838 5834 5830 5826 5822 5818 5814 5810 5805 5801 5797 5793 5788 5784 5780 5777 5773 5770 5767 5765 5763 5760 5759 5757 5756 5756 5755
5885 5882 5881 5879 5876 5874 5872 5869 5867 5865 5863 5860 5857 5854 5851 5847 5844 5840 5836 5833 5829 5825 5821 5817 5813 5809 5805 5801 5797 5792 5788 5784 5781 5777 5774 5770 5767 5765 5762 5760 5758 5756 5755 5754
5886 5884 5882 5881 5878 5876 5874 5871 5869 5867 5865 5862 5859 5856 5853 5850 5846 5843 5839 5835 5832 5828 5824 5820 5816 5812 5808 5804 5800 5796 5792 5788 5784 5780 5777 5773 5770 5767 5764 5761 5759 5756 5754 5752
5886 5885 5883 5884 5879 5878 5875 5873 5871 5868 5866 5864 5861 5858 5855 5852 5849 5845 5842 5838 5834 5831 5827 5823 5819 5815 5811 5808 5803 5799 5795 5791 5787 5783 5780 5776 5772 5769 5765 5762 5759 5756 5753 5750
5887 5885 5884 5883 5881 5878 5877 5875 5872 5870 5867 5865 5862 5860 5857 5854 5851 5848 5844 5841 5837 5834 5830 5826 5822 5819 5815 5811 5807 5803 5798 5794 5790 5786 5782 5778 5774 5770 5767 5763 5759 5755 5752 5748
5887 5886 5885 5884 5881 5879 5878 5876 5873 5871 5869 5866 5864 5862 5860 5856 5853 5849 5846 5843 5839 5836 5832 5829 5825 5821 5818 5814 5810 5806 5801 5797 5793 5789 5785 5781 5776 5772 5768 5764 5760 5755 5751 5747
5886 5885 5884 5883 5881 5880 5879 5878 5874 5871 5869 5867 5865 5863 5860 5857 5854 5851 5848 5845 5842 5838 5835 5832 5828 5824 5821 5817 5813 5809 5805 5800 5796 5792 5787 5783 5779 5774 5769 5765 5760 5756 5751 5746
5885 5884 5885 5882 5881 5880 5879 5876 5874 5872 5870 5868 5865 5863 5861 5858 5855 5852 5849 5846 5843 5840 5837 5834 5830 5827 5824 5820 5816 5812 5808 5803 5799 5795 5790 5786 5781 5776 5771 5766 5762 5757 5752 5747
5883 5884 5882 5880 5879 5878 5877 5875 5873 5871 5870 5868 5866 5863 5861 5859 5856 5853 5851 5848 5845 5842 5839 5836 5833 5829 5826 5822 5819 5815 5811 5807 5802 5798 5793 5788 5784 5779 5774 5769 5763 5758 5753 5748
5879 5879 5879 5878 5877 5876 5875 5874 5872 5871 5869 5867 5865 5863 5861 5859 5857 5854 5852 5849 5846 5843 5840 5837 5834 5831 5828 5824 5821 5817 5814 5810 5805 5801 5796 5791 5786 5782 5777 5772 5766 5761 5756 5751
5875 5875 5875 5874 5874 5873 5872 5871 5870 5869 5867 5866 5864 5862 5861 5859 5856 5854 5852 5849 5847 5844 5841 5839 5836 5833 5830 5826 5823 5820 5816 5812 5808 5804 5799 5795 5790 5785 5780 5775 5770 5765 5760 5755
5870 5870 5870 5870 5869 5869 5868 5867 5867 5866 5865 5863 5862 5861 5859 5857 5856 5854 5851 5849 5847 5844 5842 5839 5836 5834 5831 5828 5825 5822 5818 5815 5811 5807 5803 5798 5793 5789 5784 5779 5775 5770 5765 5760
5863 5863 5864 5864 5864 5863 5863 5862 5862 5861 5861 5860 5859 5858 5857 5855 5854 5852 5850 5848 5846 5844 5842 5839 5837 5834 5831 5829 5826 5823 5820 5817 5813 5809 5806 5801 5797 5793 5788 5784 5779 5775 5771 5766
5856 5857 5858 5858 5858 5858 5857 5857 5856 5856 5856 5855 5855 5854 5853 5852 5851 5849 5848 5846 5845 5843 5841 5838 5836 5834 5831 5829 5826 5824 5821 5818 5815 5811 5808 5804 5800 5796 5792 5788 5784 5780 5776 5772
5849 5849 5850 5851 5851 5851 5850 5850 5850 5850 5849 5849 5849 5848 5848 5847 5847 5846 5845 5843 5842 5840 5839 5837 5835 5833 5831 5828 5826 5824 5821 5819 5816 5813 5810 5807 5803 5800 5796 5792 5789 5785 5782 5778
5841 5841 5842 5843 5843 5843 5843 5843 5843 5843 5843 5843 5842 5842 5842 5842 5841 5841 5840 5839 5838 5837 5836 5834 5832 5831 5829 5827 5825 5823 5821 5818 5816 5814 5811 5808 5805 5802 5799 5796 5793 5790 5786 5783
5831 5832 5833 5833 5834 5834 5834 5835 5835 5835 5835 5835 5834 5834 5834 5834 5834 5834 5834 5833 5833 5832 5831 5830 5829 5828 5826 5825 5823 5821 5819 5817 5815 5813 5811 5809 5806 5804 5801 5799 5796 5793 5790 5788
5819 5820 5821 5822 5823 5824 5824 5825 5825 5825 5826 5825 5825 5826 5826 5826 5826 5826 5826 5826 5826 5826 5825 5825 5824 5823 5822 5821 5820 5818 5817 5815 5814 5812 5810 5808 5806 5804 5802 5800 5798 5796 5793 5791
5806 5807 5808 5809 5810 5811 5812 5813 5814 5814 5815 5815 5816 5816 5817 5817 5817 5817 5817 5818 5818 5818 5818 5818 5818 5817 5817 5816 5815 5814 5813 5812 5811 5810 5808 5807 5805 5804 5802 5800 5799 5797 5795 5793
5790 5791 5792 5793 5795 5796 5797 5799 5800 5801 5802 5803 5804 5805 5806 5807 5807 5807 5808 5809 5810 5809 5809 5810 5810 5810 5810 5810 5809 5809 5808 5808 5807 5806 5805 5804 5803 5802 5800 5799 5798 5797 5795 5794
5771 5772 5774 5775 5777 5779 5780 5782 5784 5786 5788 5789 5791 5792 5794 5795 5795 5796 5797 5799 5800 5799 5800 5801 5801 5802 5802 5802 5802 5802 5802 5802 5802 5801 5801 5800 5799 5798 5797 5797 5796 5795 5794 5793
5750 5752 5754 5756 5758 5759 5761 5763 5766 5769 5771 5773 5775 5777 5779 5781 5782 5784 5785 5787 5788 5788 5789 5791 5792 5792 5793 5794 5794 5795 5795 5795 5795 5795 5795 5795 5794 5794 5793 5793 5792 5791 5791 5790
5728 5729 5732 5734 5736 5739 5741 5743 5746 5749 5752 5755 5758 5760 5763 5765 5767 5769 5772 5774 5774 5776 5778 5779 5780 5781 5782 5784 5785 5785 5786 5787 5787 5788 5788 5788 5788 5788 5788 5787 5787 5787 5786 5786
5706 5707 5709 5711 5713 5716 5719 5721 5724 5727 5730 5734 5738 5741 5744 5747 5750 5753 5756 5758 5760 5762 5765 5767 5768 5769 5770 5772 5774 5775 5776 5777 5778 5779 5779 5780 5780 5780 5781 5781 5781 5781 5780 5780
5686 5686 5686 5688 5690 5692 5695 5698 5701 5704 5708 5712 5716 5720 5724 5727 5731 5735 5738 5741 5744 5747 5750 5752 5754 5755 5757 5760 5762 5763 5765 5767 5768 5769 5770 5771 5771 5772 5772 5773 5773 5773 5773 5773
5664 5664 5665 5665 5667 5669 5671 5674 5677 5680 5685 5689 5693 5697 5701 5706 5710 5715 5719 5723 5727 5731 5733 5736 5738 5740 5743 5745 5748 5750 5752 5754 5756 5757 5759 5760 5761 5762 5762 5763 5764 5764 5764 5765
5643 5642 5642 5643 5644 5645 5647 5650 5653 5656 5660 5663 5667 5672 5677 5682 5688 5693 5697 5702 5707 5711 5715 5718 5721 5724 5727 5730 5732 5735 5737 5740 5742 5744 5746 5747 5749 5750 5751 5752 5753 5754 5754 5754